Date String (YYYY-MM-DD hh:mm:ss) UTC,Instrument flags,Ambient pressure (hPa),Sample flow (lpm),Bypass flow (lpm),Sample temperature (°C),Ambient temperature (°C),ASC tube jacket temperature (°C),LED temperature (°C),Box temperature (°C),Sample RH (%),Span deviation,Mass concentration (μg/m³),Mass concentration (μg/m³),Mass concentration (μg/m³)
DateTimeUTC,F1_M11,P_M11,Q1_M11,Q2_M11,T1_M11,T2_M11,T3_M11,T4_M11,T5_M11,U1_M11,ZSPAN_M11,X0_M11,X2_M11,X1_M11
2022-02-13 14:00:00,,0830.9,4.99,0.00,22.1,21.4,00.0,31.1,23.8,08.3,0000.0,0005.50,0003.23,0002.72
2022-02-13 14:01:00,,0831.0,5.01,0.00,22.1,21.4,00.0,31.1,23.7,08.3,0000.0,0005.34,0003.21,0002.70
2022-02-13 14:02:00,,0831.0,4.99,0.00,22.0,21.4,00.0,31.1,23.7,08.3,0000.0,0005.23,0003.19,0002.69
2022-02-13 14:03:00,,0831.0,5.00,0.00,22.0,21.3,00.0,31.1,23.7,08.3,0000.0,0005.05,0003.16,0002.69
2022-02-13 14:04:00,,0830.9,5.00,0.00,22.0,21.3,00.0,31.1,23.7,08.3,0000.0,0004.66,0003.15,0002.70
2022-02-13 14:05:00,,0830.9,4.99,0.00,22.0,21.3,00.0,31.0,23.6,08.5,0000.0,0004.45,0003.17,0002.76
2022-02-13 14:06:00,,0830.9,5.01,0.00,22.0,21.8,00.0,31.1,23.7,08.4,0000.0,0005.09,0003.20,0002.79
2022-02-13 14:07:00,,0830.8,4.99,0.00,22.1,22.6,00.0,31.1,24.0,08.3,0000.0,0005.87,0003.20,0002.79
2022-02-13 14:08:00,,0830.9,5.01,0.00,22.3,23.1,00.0,31.1,24.3,08.2,0000.0,0007.26,0003.19,0002.77
2022-02-13 14:09:00,,0830.9,5.00,0.00,22.3,22.9,00.0,31.2,24.3,08.2,0000.0,0007.45,0003.20,0002.76
2022-02-13 14:10:00,,0830.9,5.01,0.00,22.3,22.6,00.0,31.2,24.2,08.5,0000.0,0007.53,0003.23,0002.82
2022-02-13 14:11:00,,0830.9,5.00,0.00,22.3,22.3,00.0,31.2,24.1,08.5,0000.0,0007.57,0003.23,0002.86
2022-02-13 14:12:00,,0830.8,4.99,0.00,22.3,22.1,00.0,31.2,24.0,08.5,0000.0,0007.63,0003.25,0002.90
2022-02-13 14:13:00,,0830.9,4.99,0.00,22.2,22.0,00.0,31.2,23.9,08.3,0000.0,0007.65,0003.25,0002.91
2022-02-13 14:14:00,,0830.9,5.01,0.00,22.2,21.8,00.0,31.2,23.9,08.2,0000.0,0007.62,0003.22,0002.86
2022-02-13 14:15:00,,0830.9,5.00,0.00,22.2,21.7,00.0,31.2,23.9,08.3,0000.0,0007.99,0003.25,0002.87
2022-02-13 14:16:00,,0830.9,4.99,0.00,22.2,21.6,00.0,31.2,23.8,08.5,0000.0,0008.03,0003.22,0002.84
2022-02-13 14:17:00,,0830.9,5.01,0.00,22.1,21.5,00.0,31.2,23.8,08.4,0000.0,0007.90,0003.21,0002.80
2022-02-13 14:18:00,,0830.9,4.99,0.00,22.1,21.5,00.0,31.2,23.8,08.3,0000.0,0007.50,0003.18,0002.74
2022-02-13 14:19:00,,0830.9,5.02,0.00,22.1,21.4,00.0,31.1,23.8,08.3,0000.0,0006.81,0003.16,0002.68
2022-02-13 14:20:00,,0830.9,4.99,0.00,22.1,21.4,00.0,31.1,23.7,08.3,0000.0,0006.46,0003.13,0002.64
2022-02-13 14:21:00,,0830.8,5.00,0.00,22.0,21.4,00.0,31.1,23.7,08.2,0000.0,0006.23,0003.04,0002.53
2022-02-13 14:22:00,,0830.8,5.01,0.00,22.0,21.3,00.0,31.1,23.7,08.1,0000.0,0006.01,0002.93,0002.43
2022-02-13 14:23:00,,0830.9,5.00,0.00,22.0,21.3,00.0,31.1,23.7,08.0,0000.0,0005.72,0002.79,0002.31
2022-02-13 14:24:00,,0830.9,4.99,0.00,22.0,21.5,00.0,31.1,23.7,08.0,0000.0,0005.61,0002.69,0002.22
2022-02-13 14:25:00,,0830.9,5.00,0.00,22.1,22.2,00.0,31.1,23.9,08.1,0000.0,0005.68,0002.67,0002.18
2022-02-13 14:26:00,,0830.9,5.00,0.00,22.2,23.1,00.0,31.1,24.2,08.1,0000.0,0004.97,0002.56,0002.12
2022-02-13 14:27:00,,0831.0,4.99,0.00,22.4,23.3,00.0,31.2,24.3,08.2,0000.0,0005.52,0002.51,0002.03
2022-02-13 14:28:00,,0830.9,5.03,0.00,22.4,23.0,00.0,31.2,24.3,08.4,0000.0,0006.01,0002.40,0001.95
2022-02-13 14:29:00,,0830.9,5.01,0.00,22.4,22.7,00.0,31.2,24.2,08.3,0000.0,0005.62,0002.33,0001.91
2022-02-13 14:30:00,,0830.9,4.99,0.00,22.4,22.5,00.0,31.2,24.1,08.2,0000.0,0005.02,0002.25,0001.87
2022-02-13 14:31:00,,0830.9,5.01,0.00,22.3,22.3,00.0,31.2,24.1,08.2,0000.0,0005.03,0002.18,0001.80
2022-02-13 14:32:00,,0830.9,5.00,0.00,22.3,22.1,00.0,31.2,24.1,08.2,0000.0,0006.25,0002.17,0001.76
2022-02-13 14:33:00,,0830.9,5.01,0.00,22.3,22.0,00.0,31.3,24.1,08.1,0000.0,0006.39,0002.13,0001.72
2022-02-13 14:34:00,,0830.7,4.99,0.00,22.3,21.9,00.0,31.3,24.1,08.1,0000.0,0006.43,0002.14,0001.71
2022-02-13 14:35:00,,0830.8,5.01,0.00,22.3,21.9,00.0,31.3,24.1,08.3,0000.0,0006.42,0002.14,0001.69
2022-02-13 14:36:00,,0830.7,4.99,0.00,22.3,21.8,00.0,31.3,24.0,08.5,0000.0,0006.22,0002.08,0001.65
2022-02-13 14:37:00,,0830.8,5.01,0.00,22.3,21.8,00.0,31.3,24.0,08.4,0000.0,0006.15,0002.03,0001.59
2022-02-13 14:38:00,,0830.7,5.00,0.00,22.3,21.7,00.0,31.3,24.0,08.2,0000.0,0005.52,0001.95,0001.55
2022-02-13 14:39:00,,0830.8,5.00,0.00,22.3,21.7,00.0,31.3,24.0,08.1,0000.0,0004.47,0001.92,0001.54
2022-02-13 14:40:00,,0830.9,4.99,0.00,22.2,21.7,00.0,31.2,23.9,08.4,0000.0,0004.49,0001.97,0001.60
2022-02-13 14:41:00,,0830.9,5.01,0.00,22.2,21.6,00.0,31.2,23.9,08.3,0000.0,0004.73,0002.14,0001.72
2022-02-13 14:42:00,,0830.9,4.99,0.00,22.2,21.6,00.0,31.2,23.9,08.4,0000.0,0004.77,0002.24,0001.83
2022-02-13 14:43:00,,0830.8,5.02,0.00,22.2,21.6,00.0,31.2,23.9,08.4,0000.0,0003.51,0002.31,0001.95
2022-02-13 14:44:00,,0830.7,4.99,0.00,22.2,21.5,00.0,31.2,23.9,08.4,0000.0,0003.43,0002.39,0002.05
2022-02-13 14:45:00,,0830.7,5.01,0.00,22.2,21.5,00.0,31.2,23.9,08.3,0000.0,0003.47,0002.45,0002.12
2022-02-13 14:46:00,,0830.7,5.00,0.00,22.2,21.5,00.0,31.2,23.9,08.3,0000.0,0003.58,0002.52,0002.19
2022-02-13 14:47:00,,0830.7,5.00,0.00,22.1,21.5,00.0,31.2,23.8,08.0,0000.0,0003.82,0002.67,0002.30
2022-02-13 14:48:00,,0830.7,5.02,0.00,22.1,21.5,00.0,31.2,23.8,07.8,0000.0,0003.92,0002.78,0002.40
2022-02-13 14:49:00,,0830.7,4.98,0.00,22.1,21.5,00.0,31.2,23.9,07.6,0000.0,0004.11,0002.85,0002.45
2022-02-13 14:50:00,,0830.7,5.02,0.00,22.1,21.5,00.0,31.2,23.9,07.6,0000.0,0004.47,0002.95,0002.46
2022-02-13 14:51:00,,0830.7,4.99,0.00,22.1,21.5,00.0,31.2,23.9,07.6,0000.0,0004.57,0002.97,0002.43
2022-02-13 14:52:00,,0830.7,5.00,0.00,22.1,21.6,00.0,31.1,23.9,07.6,0000.0,0004.44,0002.86,0002.34
2022-02-13 14:53:00,,0830.7,5.00,0.00,22.2,22.4,00.0,31.2,24.1,07.7,0000.0,0004.33,0002.79,0002.30
2022-02-13 14:54:00,,0830.8,4.99,0.00,22.3,23.4,00.0,31.2,24.3,07.7,0000.0,0004.35,0002.78,0002.26
2022-02-13 14:55:00,,0830.8,5.01,0.00,22.5,23.4,00.0,31.3,24.5,07.6,0000.0,0004.55,0002.77,0002.23
2022-02-13 14:56:00,,0830.9,5.00,0.00,22.5,23.1,00.0,31.3,24.5,07.6,0000.0,0006.75,0002.78,0002.21
2022-02-13 14:57:00,,0830.7,5.00,0.00,22.6,22.9,00.0,31.3,24.5,07.7,0000.0,0006.90,0002.77,0002.20
2022-02-13 14:58:00,,0830.7,5.00,0.00,22.6,22.7,00.0,31.3,24.4,07.6,0000.0,0006.79,0002.71,0002.19
2022-02-13 14:59:00,,0830.8,5.00,0.00,22.6,22.6,00.0,31.3,24.4,07.7,0000.0,0006.76,0002.70,0002.18
